Location: Ebersheim
(48.3033°N, 7.4991°E)
Time: 18:11:43
(UTC+00:00)

Cosmos 2208 Rocket - Pass Details

Date: 27 February 2020
Orbit: 755 x 805 km, 74.0° (Epoch: 29 March)

Event Time Altitude Azimuth Distance (km) Brightness Sun altitude
Rises 19:06:53 0° 197° (SSW) 3,294 7.4 -20.1°
Reaches altitude 10° 19:09:17 10° 196° (SSW) 2,363 6.6 -20.5°
Maximum altitude 19:14:40 80° 111° (ESE) 808 3.9 -21.4°
Drops below altitude 10° 19:20:01 10° 25° (NNE) 2,349 6.4 -22.3°
Sets 19:22:24 0° 24° (NNE) 3,274 7.2 -22.7°
